Regional Weather Roundup
Issued by NWS

Home | Current Version | Previous Version | Graphics & Text | Print | Product List | Glossary On
Versions: 1 2 3 4 5 6 7 8 9 10 11 12 13 14 15 16 17 18 19 20 21 22 23 24 25 26 27 28 29 30 31 32 33 34 35 36 37 38 39 40 41 42 43 44 45 46 47 48 49 50
000
ASUS43 KLOT 301900
RWRIL

ILLINOIS REGIONAL WEATHER ROUNDUP
NATIONAL WEATHER SERVICE CHICAGO/ROMEOVILLE IL
200 PM CDT WED JUL 30 2014

NOTE: "FAIR" INDICATES FEW OR NO CLOUDS BELOW 12,000 FEET WITH NO
SIGNIFICANT WEATHER AND/OR OBSTRUCTIONS TO VISIBILITY.

* THESE STATIONS ARE NOT UNDER NWS QUALITY CONTROL. THEY ALSO MAY NOT
  REPORT WEATHER SUCH AS PRECIPITATION OR FOG.

ILZ001-002-007-009-015-016-024-302000-
NORTHWEST ILLINOIS

CITY           SKY/WX    TMP DP  RH WIND       PRES   REMARKS
MOLINE         MOSUNNY   81  59  47 NW7       30.05F HX  81
STERLING*      SUNNY     79  61  53 NW7       30.05F HX  80
$$

ILZ003-004-008-010-011-017-018-302000-
NORTH CENTRAL ILLINOIS

CITY           SKY/WX    TMP DP  RH WIND       PRES   REMARKS
ROCKFORD       MOSUNNY   78  58  49 W12       30.05F
FREEPORT*      MOSUNNY   77  63  61 NW10      30.07S
$$

ILZ005-006-012>014-019>023-302000-
NORTHEAST ILLINOIS

CITY           SKY/WX    TMP DP  RH WIND       PRES   REMARKS
CHICAGO-OHARE  PTSUNNY   78  53  41 NW12G17   30.01F
CHICAGO-MIDWAY PTSUNNY   80  54  40 N7        30.01F HX  80
AURORA         PTSUNNY   77  58  51 NW9       30.04F
LANSING*       PTSUNNY   78  52  40 W6G16     30.02F
WAUKEGAN       SUNNY     69  59  70 E10       30.03S
DUPAGE AIRPORT MOSUNNY   78  56  46 W8        30.03S
WHEELING       PTSUNNY   74  59  59 NE10      30.03F
NORTHERLY ISL    N/A     67  61  81 NE8         N/A
$$

LMZ740>746-302000-
SOUTHERN LAKE MICHIGAN

STATION/POSITION SKY/WX   TEMP    WIND        PRES    VSBY  WAVE
                          AIR SEA DIR/SP/G                  HT/PER
                          (F)     (DEG/KT/KT) (MB)    (MI)  (FT/S)
SOUTHERN BUOY              59 61  300/  8/ 10 1017.5F         1
WAUKEGAN HARBOR            63      40/ 11/ 12   N/A
HARRISON CRIB              64      50/  9/ 10   N/A
BURNHAM HARBOR             67      40/  8       N/A
CALUMET HARBOR             67      60/  8/  9 1015.7F
MICHIGAN CITY              69     260/  3/  4   N/A
MICHIGAN CITY 6N           66 70   20/  6/  8   N/A           1/ 3
ST. JOSEPH                 63 69  310/  6/  8   N/A           1/ 3
$$

ILZ025>027-034>036-040-047-049-050-058-095>099-302000-
WEST-CENTRAL ILLINOIS

CITY           SKY/WX    TMP DP  RH WIND       PRES   REMARKS
QUINCY         MOSUNNY   80  56  43 W6        30.09S HX  80
GALESBURG*     SUNNY     81  60  48 W6        30.08S HX  82
MACOMB*        MOSUNNY   77  60  56 W6        30.10S
$$

ILZ028>032-037-038-041>044-048-051>054-059>061-302000-
CENTRAL ILLINOIS

CITY           SKY/WX    TMP DP  RH WIND       PRES   REMARKS
DECATUR        PTSUNNY   78  56  46 W12       30.07F
PEORIA         PTSUNNY   80  57  45 NW8       30.06F HX  80
SPRINGFIELD    MOSUNNY   81  59  47 W7        30.08S HX  81
TAYLORVILLE    NOT AVBL
$$

ILZ033-039-045-046-055>057-062-063-302000-
EAST-CENTRAL ILLINOIS

CITY           SKY/WX    TMP DP  RH WIND       PRES   REMARKS
CHAMPAIGN      MOSUNNY   79  61  53 W9        30.07S HX  80
MATTOON        MOSUNNY   78  58  49 W6        30.06F
$$

ILZ079-100>102-302000-
SOUTHWEST ILLINOIS

CITY           SKY/WX    TMP DP  RH WIND       PRES   REMARKS
ALTON          MOSUNNY   77  55  47 N6        30.08F
BELLEVILLE     PTSUNNY   82  57  42 VRB1      30.07F HX  81
CAHOKIA*       PTSUNNY   83  54  36 NE6       30.07F HX  82
SPARTA*        PTSUNNY   77  61  57 S8        30.09F
$$

ILZ064>066-069>071-074>076-080>082-084>086-088>090-092>094-302000-
SOUTH-CENTRAL ILLINOIS

CITY           SKY/WX    TMP DP  RH WIND       PRES   REMARKS
CARBONDALE     CLOUDY    76  60  57 SW8       30.10F
MARION         PTSUNNY   79  59  50 SW12      30.11S HX  80
MT. VERNON     PTSUNNY   79  57  47 W3        30.09S HX  80
$$

ILZ067-068-072-073-078-083-087-091-302000-
SOUTHEAST ILLINOIS

CITY           SKY/WX    TMP DP  RH WIND       PRES   REMARKS
LAWRENCEVILLE  MOSUNNY   79  60  52 W7        30.08F HX  80
HARRISBURG*    PTSUNNY   79  61  53 SW10      30.10S HX  80
$$

ABBREVIATIONS USED IN REMARKS
   TC - TEMPERATURE IN CELSIUS
  WCI - WIND CHILL INDEX
   HX - HEAT INDEX
  VSB - VISIBILITY
$$



USA.gov is the U.S. government's official web portal to all federal, state and local government web resources and services.